Tracking 19254 objects as of 19-Oct-2018
HD Live streaming from Space Station
objects crossing your sky now

METEOR 1-11

Track METEOR 1-11 now!
10-day predictions
METEOR 1-11 is classified as:


NORAD ID: 5917
Int'l Code: 1972-022A
Perigee: 849.3 km
Apogee: 892.9 km
Inclination: 81.2 °
Period: 102.2 minutes
Semi major axis: 7242 km
RCS: 4.5529 m2 (large)
Launch date: March 30, 1972
Source: Commonwealth of Independent States (former USSR) (CIS)
Launch site: PLESETSK MISSILE AND SPACE COMPLEX (PKMTR)
aabbcc
Your satellite tracking list
Your tracking list is empty




NASA's NSSDC Master Catalog

Two Line Element Set (TLE):
1  5917U 72022A   18292.61402102 -.00000099 +00000-0 -64094-4 0  9990
2  5917 081.2183 129.3228 0030126 306.5771 053.2628 14.08656496390608
Source of the keplerian elements: AFSPC